Вернуться в каталог

STARLINK-36524

АктивенСвязьVLEO
NORAD 67452·PAYLOAD·🇺🇸 United States

Запущен Jan 14, 2026 с Cape Canaveral Space Force Station

Loading…

Ближайшие Пролёты (ближайшие 24 часа)

TLE

СвежийSource: CelesTrak SupGP

Эпоха: Sep 14, 2026, 22:33 UTC

1 67452C 26008H   26257.94006944  .00010256  00000+0  37142-3 0  2578
2 67452  43.0008 216.8764 0001380 261.2258 349.7923 15.27578116    14

Отслеживайте STARLINK-36524 в реальном времени с AllMySat

Download on the App Store